Location: *
(13.0000°N, 151.6000°E)
Time: 15:56:22
(UTC+00:00)

Okean O Rocket - Pass Details

Date: 01 April 2020
Orbit: 623 x 644 km, 98.2° (Epoch: 04 June)

Event Time Altitude Azimuth Distance (km) Brightness Sun altitude
Rises 19:24:41 0° 12° (NNE) 2,924 5.3 -6.8°
Reaches altitude 10° 19:26:53 10° 13° (NNE) 2,019 4.5 -6.3°
Maximum altitude 19:31:17 86° 103° (ESE) 644 1.7 -5.2°
Drops below altitude 10° 19:35:43 10° 191° (S) 2,029 4.0 -4.1°
Sets 19:37:55 0° 191° (SSW) 2,940 4.8 -3.6°
